Weather History for Wadesboro, NC

Change the Weather History Date:

Sunday, March 23, 2014

  Actual Average (KCLT) Record (KCLT)
Temperature  
Mean Temperature 48 °F 53 °F  
Max Temperature 61 °F 65 °F 91 °F (1907)
Min Temperature 34 °F 41 °F 20 °F (1888)
Degree Days  
Heating Degree Days 18 12  
Month to date heating degree days 346  
Since 1 July heating degree days 3045  
Cooling Degree Days 0 0  
Month to date cooling degree days 0  
Year to date cooling degree days 0  
Moisture  
Dew Point 41 °F    
Average Humidity 82    
Maximum Humidity 97    
Minimum Humidity 39    
Precipitation  
Precipitation 0.00 in 0.11 in 2.00 in (1979)
Month to date precipitation 3.02  
Year to date precipitation 9.75  
Snow  
Snow 0.00 in 0.00 in 0.10 in (1885)
Month to date snowfall 0.5  
Since 1 July snowfall 4.2  
Snow Depth -    
Sea Level Pressure  
Sea Level Pressure 30.00 in    
Wind  
Wind Speed 2 mph (North)    
Max Wind Speed 18 mph    
Max Gust Speed 22 mph    
Visibility 8 miles    
Events Fog , Rain    
T = Trace of Precipitation, MM = Missing Value Source: NWS Daily Summary

Daily Weather History Graph

Daily Weather History Graph

Search for Another Location

Airport:

Trip Planner

Search our weather history database for the weather conditions in past years. The results will help you decide how hot, cold, wet, or windy it might be!

Date:

Astronomy

Mar. 23, 2014 Rise Set
Actual Time 7:19 AM EDT 7:34 PM EDT
Civil Twilight 6:54 AM EDT 7:59 PM EDT
Nautical Twilight 6:24 AM EDT 8:29 PM EDT
Astronomical Twilight 5:54 AM EDT 8:59 PM EDT
Moon 1:39 AM EDT (3/23) 12:10 PM EDT (3/23)
Length of Visible Light 13h 05m
Length of Day
12h 14m
Waning Gibbous, 55% of the Moon is Illuminated
Mar 23
Waning Gibbous
Mar 23
Last Quarter
Mar 30
New
Apr 7
First Quarter
Apr 15
Full

Hourly Weather History & Observations

Time (EDT) Temp. Windchill Dew Point Humidity Pressure Visibility Wind Dir Wind Speed Gust Speed Precip Events Conditions
12:15 AM 50.7 °F - 44.6 °F 80% 29.98 in 10.0 mi Calm Calm - N/A   Clear
12:35 AM 50.7 °F - 44.4 °F 79% 29.98 in 10.0 mi Calm Calm - N/A   Clear
12:55 AM 49.1 °F - 43.9 °F 82% 29.98 in 10.0 mi Calm Calm - N/A   Clear
1:15 AM 52.9 °F - 43.0 °F 69% 29.98 in 10.0 mi Calm Calm - N/A   Clear
1:35 AM 50.0 °F - 43.2 °F 77% 29.97 in 10.0 mi Calm Calm - N/A   Clear
1:55 AM 52.7 °F - 42.8 °F 69% 29.97 in 10.0 mi Calm Calm - N/A   Clear
2:15 AM 52.2 °F - 43.3 °F 72% 29.97 in 10.0 mi Calm Calm - N/A   Clear
2:35 AM 47.8 °F - 42.8 °F 83% 29.97 in 10.0 mi Calm Calm - N/A   Clear
2:55 AM 46.8 °F - 42.3 °F 84% 29.96 in 10.0 mi Calm Calm - N/A   Clear
3:15 AM 46.4 °F - 42.1 °F 85% 29.95 in 10.0 mi Calm Calm - N/A   Clear
3:35 AM 45.1 °F - 41.9 °F 88% 29.94 in 10.0 mi Calm Calm - N/A   Clear
3:55 AM 44.8 °F - 41.7 °F 89% 29.93 in 10.0 mi Calm Calm - N/A   Clear
4:15 AM 45.9 °F - 42.6 °F 88% 29.93 in 10.0 mi Calm Calm - N/A   Clear
4:35 AM 44.8 °F 43.3 °F 41.9 °F 90% 29.94 in 10.0 mi North 3.5 mph - N/A   Clear
4:55 AM 44.2 °F - 41.7 °F 91% 29.93 in 10.0 mi Calm Calm - N/A   Clear
5:15 AM 43.9 °F - 41.0 °F 90% 29.93 in 10.0 mi Calm Calm - N/A   Clear
5:35 AM 42.3 °F - 40.5 °F 93% 29.93 in 7.0 mi Calm Calm - N/A   Clear
5:55 AM 43.2 °F - 41.9 °F 95% 29.92 in 10.0 mi Calm Calm - N/A   Clear
6:15 AM 43.2 °F - 41.4 °F 93% 29.93 in 10.0 mi Calm Calm - N/A   Clear
6:35 AM 43.3 °F - 41.5 °F 93% 29.94 in 10.0 mi Calm Calm - N/A   Clear
6:55 AM 41.7 °F - 40.1 °F 94% 29.95 in 10.0 mi Calm Calm - N/A   Clear
7:15 AM 41.9 °F - 40.5 °F 95% 29.94 in 7.0 mi Calm Calm - N/A   Clear
7:35 AM 41.0 °F 39.0 °F 39.6 °F 95% 29.95 in 5.0 mi North 3.5 mph - N/A   Clear
7:55 AM 43.2 °F - 42.1 °F 96% 29.96 in 7.0 mi Calm Calm - N/A   Clear
8:15 AM 44.6 °F - 43.2 °F 95% 29.97 in 7.0 mi Calm Calm - N/A   Clear
8:35 AM 45.0 °F - 43.7 °F 95% 29.96 in 7.0 mi Calm Calm - N/A   Clear
8:55 AM 47.8 °F - 45.5 °F 92% 29.97 in 10.0 mi Calm Calm - N/A   Clear
9:15 AM 50.9 °F - 45.7 °F 82% 29.96 in 10.0 mi Calm Calm - N/A   Clear
9:35 AM 53.1 °F - 44.4 °F 72% 29.95 in 10.0 mi Calm Calm - N/A   Clear
9:55 AM 54.3 °F - 42.1 °F 63% 29.95 in 10.0 mi NE 4.6 mph - N/A   Clear
10:15 AM 56.3 °F - 41.4 °F 57% 29.95 in 10.0 mi NE 3.5 mph - N/A   Clear
10:35 AM 57.6 °F - 40.6 °F 53% 29.97 in 10.0 mi North 4.6 mph - N/A   Clear
10:55 AM 59.0 °F - 40.8 °F 51% 29.96 in 10.0 mi NE 4.6 mph - N/A   Clear
11:15 AM 59.9 °F - 40.1 °F 48% 29.96 in 10.0 mi NNE 3.5 mph - N/A   Scattered Clouds
11:35 AM 60.6 °F - 38.5 °F 44% 29.99 in 10.0 mi NW 9.2 mph 17.3 mph N/A   Overcast
11:55 AM 61.7 °F - 37.0 °F 40% 29.99 in 10.0 mi NW 10.4 mph - N/A   Mostly Cloudy
12:15 PM 59.9 °F - 34.5 °F 39% 30.00 in 10.0 mi NNW 15.0 mph 21.9 mph N/A   Scattered Clouds
12:35 PM 57.7 °F - 33.6 °F 40% 30.00 in 10.0 mi North 15.0 mph - N/A   Mostly Cloudy
12:55 PM 54.5 °F - 37.4 °F 52% 30.02 in 10.0 mi NNW 16.1 mph 19.6 mph N/A Rain Light Rain
1:15 PM 52.9 °F - 36.3 °F 53% 30.02 in 10.0 mi NNW 18.4 mph 21.9 mph N/A   Light Drizzle
1:35 PM 50.0 °F - 39.0 °F 66% 30.00 in 10.0 mi NNE 12.7 mph 19.6 mph N/A Rain Light Rain
1:55 PM 49.1 °F - 40.5 °F 72% 30.00 in 10.0 mi North 9.2 mph - N/A Rain Light Rain
2:15 PM 48.4 °F - 41.7 °F 78% 30.00 in 10.0 mi North 5.8 mph - N/A Rain Light Rain
2:35 PM 47.7 °F - 42.6 °F 83% 29.98 in 10.0 mi NNE 4.6 mph - N/A Rain Light Rain
2:55 PM 47.3 °F - 43.2 °F 86% 29.98 in 10.0 mi North 6.9 mph - N/A Rain Light Rain
3:15 PM 47.1 °F - 43.2 °F 86% 29.99 in 10.0 mi North 4.6 mph - N/A Rain Rain
3:35 PM 46.8 °F - 43.7 °F 89% 30.00 in 7.0 mi North 5.8 mph - N/A   Drizzle
3:55 PM 46.8 °F - 44.2 °F 91% 29.99 in 7.0 mi North 8.1 mph - N/A Rain Light Rain
4:15 PM 47.1 °F - 44.2 °F 90% 29.99 in 7.0 mi North 5.8 mph - N/A   Light Drizzle
4:35 PM 46.4 °F 42.4 °F 43.7 °F 90% 30.00 in 5.0 mi North 8.1 mph - N/A Rain Light Rain
4:55 PM 46.0 °F 41.0 °F 43.7 °F 92% 30.01 in 5.0 mi NNW 10.4 mph - N/A Rain Light Rain
5:15 PM 45.7 °F 41.0 °F 43.0 °F 90% 30.02 in 4.0 mi North 9.2 mph - N/A   Drizzle
5:35 PM 45.1 °F 39.9 °F 42.8 °F 91% 30.02 in 3.0 mi North 10.4 mph - N/A   Overcast
5:55 PM 45.5 °F 43.2 °F 42.8 °F 90% 30.02 in 5.0 mi North 4.6 mph - N/A   Overcast
6:15 PM 45.5 °F 42.5 °F 42.4 °F 89% 30.03 in 7.0 mi North 5.8 mph - N/A   Overcast
6:35 PM 45.5 °F 44.2 °F 41.9 °F 87% 30.03 in 10.0 mi North 3.5 mph - N/A   Overcast
6:55 PM 45.5 °F - 41.9 °F 87% 30.03 in 10.0 mi Calm Calm - N/A   Overcast
7:15 PM 45.5 °F - 42.1 °F 88% 30.04 in 7.0 mi Calm Calm - N/A   Overcast
7:35 PM 45.0 °F - 41.9 °F 89% 30.05 in 7.0 mi Calm Calm - N/A   Overcast
7:55 PM 44.6 °F - 41.9 °F 90% 30.06 in 7.0 mi Calm Calm - N/A   Mostly Cloudy
8:15 PM 44.1 °F - 41.9 °F 92% 30.07 in 7.0 mi Calm Calm - N/A   Scattered Clouds
8:35 PM 42.8 °F - 41.2 °F 94% 30.08 in 5.0 mi Calm Calm - N/A   Clear
8:55 PM 40.6 °F - 39.6 °F 96% 30.09 in 0.5 mi Calm Calm - N/A Fog Fog
9:15 PM 40.6 °F - 39.7 °F 97% 30.10 in 1.5 mi Calm Calm - N/A   Mist
9:35 PM 39.2 °F - 38.3 °F 97% 30.11 in 0.2 mi Calm Calm - N/A Fog Fog
9:55 PM 37.6 °F - 36.7 °F 97% 30.12 in 0.2 mi Calm Calm - N/A Fog Fog
10:15 PM 36.9 °F - 36.1 °F 97% 30.12 in 0.5 mi Calm Calm - N/A Fog Fog
10:35 PM 36.5 °F - 35.8 °F 97% 30.13 in 0.5 mi Calm Calm - N/A Fog Fog
10:55 PM 35.6 °F - 34.7 °F 97% 30.13 in 0.2 mi Calm Calm - N/A Fog Fog
11:15 PM 35.6 °F - 34.9 °F 97% 30.13 in 0.2 mi Calm Calm - N/A Fog Fog
11:35 PM 34.2 °F - 33.4 °F 97% 30.15 in 0.2 mi Calm Calm - N/A Fog Fog
11:55 PM 34.7 °F - 33.8 °F 97% 30.15 in 0.5 mi Calm Calm - N/A Fog Fog